OPS 4467 A

Satellite information

Favourite Embed

Satellite Type and Status

PAYLOADIN ORBIT

Key statistics

Satellite OPS 4467 A at a glance.

Uptime

22299

Days in orbit

Revolutions

≈ 14.2

Per day

Orbit

SSO

Sun Synchronous Orbit

Inclination

99.8

Latest

Satellite identification and parameters

Extended collection of information and parameters for OPS 4467 A.

Object identification

Identified? True

Debris? False

Object name: OPS 4467 A

International designator: 1964-031A

Object number (NORAD): 812

Object ID (CCSDS): 812

Country: UNITED STATES OF AMERICA (US)

Current information (Y/N): Y

RCS size: MEDIUM

Orbital parameters

Period: 101.09 minutes

Inclination: 99.7779 deg

SMA: 7188.391 km

Apoapsis: 814.01 km

Periapsis: 806.502 km

RAAN: 298.0419 deg

Eccentricy: 0.0005222

Argument of periapsis: 345.8793 deg

Mean anomaly: 14.2236 deg

Mean motion: 14.24476299 rev/day

Mean motion (dot): 0.00000019 rev/day2

B* drag term: 0.000031195 1/REarth

Two-line elements (TLE)

Creation date: July 6, 2025, 6:05 p.m.

Reference frame: TEME

Reference center: EARTH

Epoch: July 6, 2025, 6:20 a.m. UTC

TLE line 0: 0 OPS 4467 A

TLE line 1: 1 00812U 64031A 25187.26412054 .00000019 00000-0 31195-4 0 9995

TLE line 2: 2 00812 99.7779 298.0419 0005222 345.8793 14.2236 14.24476299167048

Live tracking on map

Real-time ground track for satellite OPS 4467 A.

In-orbit conjunctions

There are no conjunctions computed for OPS 4467 A, at the moment. Check back to stay up to date, as we update our databases every day.

Go to all conjunctions

Associated space launch

The DSAP-1 (Defense Satellite Application Program Block 1) satellites series, also known as P-35, was the first series of military meteorologal satellites of the USA.

OPS 4467 A was lifted into orbit during the mission ‘Thor SLV-2 Agena D | DSAP-1 F8 & F9’, on board a Thor SLV-2 Agena D space rocket.

The launch took place on June 18, 1964, 4:56 a.m. from Space Launch Complex 1W.

For more information about the launch, click the button.

Launch to space Thor SLV-2 Agena D | DSAP-1 F8 & F9
Thor SLV-2 Agena D | DSAP-1 F8 & F9

Agency: N/A

Status: Launch Successful

Launch date: June 18, 1964, 4:56 a.m. UTC

Rocket: Thor SLV-2 Agena D

Launch pad: Space Launch Complex 1W

Location: Vandenberg SFB, CA, USA

...

Latest news about this satellite

There are no fresh news available about this satellite. Check back as we update our databases every day.


Newsletter sign-up

Weekly statistics, charts and insights to help you stay on top of the space industry.